NUSTAR

Last updated on Thu Oct 30 2025 00:03:36 GMT+0000 (Coordinated Universal Time)

1 38358U 12031A 25302.58336806 .00023048 00000+0 14892-2 0 9997 2 38358 6.0284 320.1278 0009630 278.8538 314.7401 15.05616888 1303
UTC large
Height (km)
Speed (km/s)
/
Latitude / Longitude
Inclination (degrees)
Orbital Period (minutes)
Azimuth
Elevation
Range (km)
Doppler Factor

Next 0 passes for location: London (51.5072 / 0.1276)

Sorry there are no passes over London.